Total_Precipitation_Accumulation
0.31 0.40 0.42 0.39 0.39 0.40 0.44 0.54 0.61 0.52 0.51 0.58 0.64 0.73 0.82 0.76 0.72 0.60 0.42 0.36 0.30 0.24 0.22 0.20 0.20 0.24 0.30 0.32 0.36 0.40 0.45 0.50 0.59 0.76 0.99 1.21 1.39 1.54
0.38 0.44 0.50 0.50 0.51 0.50 0.51 0.59 0.72 0.70 0.65 0.64 0.67 0.69 0.69 0.52 0.50 0.45 0.36 0.33 0.26 0.21 0.18 0.17 0.16 0.17 0.20 0.22 0.25 0.29 0.32 0.33 0.36 0.40 0.47 0.59 0.76 1.01
0.37 0.42 0.46 0.54 0.61 0.62 0.67 0.69 0.72 0.82 0.76 0.65 0.75 0.82 0.72 0.53 0.40 0.35 0.31 0.25 0.20 0.21 0.19 0.16 0.15 0.14 0.14 0.15 0.19 0.22 0.24 0.25 0.26 0.28 0.30 0.32 0.32 0.38
0.34 0.44 0.48 0.49 0.55 0.63 0.75 0.78 0.80 0.91 0.90 0.76 0.83 0.92 0.82 0.68 0.51 0.39 0.27 0.21 0.18 0.18 0.18 0.17 0.16 0.14 0.12 0.11 0.11 0.12 0.14 0.16 0.18 0.18 0.19 0.19 0.21 0.21
0.31 0.39 0.47 0.55 0.58 0.62 0.72 0.77 0.83 0.99 1.03 0.95 0.94 1.04 1.07 0.85 0.59 0.40 0.27 0.20 0.15 0.15 0.15 0.14 0.14 0.12 0.10 0.09 0.08 0.06 0.06 0.08 0.09 0.09 0.11 0.13 0.15 0.16
0.33 0.36 0.41 0.52 0.60 0.64 0.72 0.84 0.93 1.02 1.10 1.08 1.12 1.22 1.21 1.08 0.79 0.48 0.34 0.23 0.15 0.11 0.11 0.11 0.11 0.10 0.09 0.08 0.06 0.04 0.04 0.04 0.05 0.06 0.05 0.05 0.07 0.08
0.23 0.30 0.32 0.37 0.47 0.58 0.67 0.77 0.93 1.08 1.25 1.31 1.32 1.48 1.43 1.22 0.94 0.60 0.42 0.29 0.20 0.12 0.09 0.07 0.06 0.05 0.05 0.06 0.06 0.05 0.03 0.03 0.02 0.03 0.03 0.03 0.03 0.03
0.20 0.26 0.26 0.27 0.31 0.37 0.48 0.62 0.77 0.93 1.13 1.31 1.44 1.54 1.58 1.42 1.20 0.93 0.55 0.29 0.22 0.19 0.12 0.11 0.06 0.04 0.03 0.02 0.05 0.04 0.03 0.03 0.02 0.02 0.02 0.02 0.02 0.02
0.21 0.23 0.19 0.17 0.24 0.27 0.32 0.40 0.51 0.63 0.78 0.99 1.19 1.29 1.46 1.55 1.38 1.08 0.74 0.45 0.25 0.17 0.13 0.12 0.08 0.05 0.03 0.04 0.05 0.04 0.03 0.02 0.02 0.02 0.01 0.01 0.02 0.02
0.23 0.24 0.23 0.21 0.22 0.27 0.30 0.30 0.31 0.36 0.45 0.57 0.75 0.99 1.19 1.38 1.38 1.27 1.11 0.77 0.47 0.24 0.12 0.12 0.10 0.08 0.06 0.05 0.07 0.05 0.03 0.02 0.01 0.01 0.01 0.01 0.01 0.01
0.25 0.27 0.29 0.24 0.20 0.20 0.27 0.28 0.27 0.27 0.30 0.39 0.53 0.75 1.00 1.17 1.32 1.28 1.14 0.91 0.63 0.33 0.12 0.07 0.09 0.11 0.12 0.08 0.06 0.07 0.04 0.03 0.02 0.01 0.01 0.01 0.01 0.01
0.35 0.36 0.34 0.29 0.26 0.18 0.23 0.25 0.23 0.23 0.25 0.26 0.35 0.49 0.65 0.90 1.09 1.10 0.97 0.81 0.62 0.38 0.15 0.06 0.05 0.08 0.13 0.09 0.05 0.03 0.03 0.04 0.03 0.02 0.01 0.01 0.01 0.00
0.40 0.40 0.39 0.33 0.27 0.20 0.20 0.24 0.22 0.24 0.28 0.29 0.30 0.39 0.53 0.69 0.90 0.99 0.95 0.76 0.55 0.35 0.19 0.09 0.05 0.04 0.05 0.04 0.03 0.02 0.02 0.01 0.01 0.01 0.01 0.01 0.01 0.00
0.51 0.52 0.51 0.43 0.35 0.29 0.23 0.21 0.21 0.23 0.31 0.33 0.35 0.37 0.45 0.55 0.71 0.91 0.99 0.88 0.64 0.44 0.31 0.18 0.07 0.04 0.04 0.02 0.02 0.02 0.02 0.01 0.01 0.00 0.01 0.02 0.02 0.01
0.54 0.65 0.64 0.53 0.47 0.41 0.32 0.25 0.23 0.22 0.27 0.32 0.30 0.31 0.35 0.44 0.58 0.82 1.00 1.07 0.92 0.66 0.46 0.30 0.16 0.07 0.04 0.04 0.03 0.01 0.01 0.01 0.01 0.00 0.00 0.01 0.01 0.00
0.48 0.59 0.68 0.68 0.64 0.57 0.47 0.34 0.26 0.25 0.25 0.29 0.32 0.34 0.40 0.48 0.57 0.64 0.82 0.95 0.97 0.83 0.57 0.39 0.23 0.14 0.07 0.03 0.02 0.02 0.01 0.00 0.00 0.00 0.00 0.00 0.00 0.00
0.52 0.69 0.83 0.85 0.84 0.76 0.62 0.47 0.34 0.31 0.30 0.30 0.35 0.37 0.42 0.45 0.49 0.51 0.60 0.71 0.69 0.65 0.56 0.42 0.32 0.20 0.12 0.05 0.02 0.01 0.01 0.00 0.00 0.00 0.00 0.00 0.00 0.00
0.42 0.68 0.93 0.98 0.98 0.92 0.78 0.60 0.46 0.38 0.35 0.34 0.35 0.35 0.36 0.40 0.44 0.47 0.49 0.57 0.58 0.50 0.46 0.38 0.32 0.27 0.17 0.09 0.04 0.01 0.00 0.00 0.00 0.00 0.00 0.00 0.00 0.00
0.28 0.49 0.75 0.92 0.97 0.97 0.86 0.69 0.53 0.45 0.44 0.40 0.38 0.35 0.34 0.35 0.38 0.43 0.45 0.49 0.53 0.47 0.38 0.34 0.27 0.21 0.17 0.10 0.05 0.02 0.01 0.00 0.00 0.00 0.00 0.00 0.00 0.00
0.22 0.34 0.56 0.79 0.87 0.90 0.84 0.73 0.63 0.56 0.53 0.48 0.43 0.39 0.35 0.34 0.33 0.36 0.38 0.40 0.43 0.45 0.37 0.30 0.23 0.17 0.12 0.09 0.05 0.03 0.01 0.01 0.00 0.00 0.00 0.00 0.00 0.00
0.20 0.25 0.39 0.60 0.73 0.79 0.76 0.70 0.65 0.60 0.56 0.52 0.48 0.42 0.38 0.36 0.32 0.29 0.32 0.38 0.38 0.37 0.34 0.25 0.19 0.18 0.15 0.14 0.11 0.05 0.02 0.01 0.01 0.01 0.00 0.00 0.00 0.00
0.23 0.24 0.31 0.45 0.59 0.69 0.69 0.63 0.62 0.61 0.59 0.54 0.50 0.45 0.39 0.35 0.33 0.29 0.28 0.30 0.30 0.29 0.30 0.28 0.23 0.20 0.17 0.15 0.10 0.07 0.04 0.01 0.01 0.01 0.01 0.00 0.00 0.00
0.29 0.27 0.29 0.39 0.48 0.57 0.56 0.53 0.55 0.58 0.54 0.50 0.47 0.44 0.39 0.35 0.34 0.31 0.26 0.25 0.27 0.28 0.32 0.35 0.32 0.22 0.18 0.16 0.12 0.10 0.07 0.04 0.01 0.01 0.00 0.00 0.00 0.00